Flag for Antigua and Barbuda Weather past 2 weeks in Saint John's, Antigua and Barbuda

Now
81 °F

Passing clouds.


Feels Like: 86 °F
Forecast: 80 / 86 °F
Wind: 6 mph from Southeast

Location: Vc Bird International Antigua Airport

Current Time: Sep 18, 2014 at 4:25:30 AM

Latest Report: Sep 18, 2014 at 3:00 AM


Visibility: N/A

Pressure: 29.92 "Hg

Humidity: 84%

Dew point: 75 °F

Location of Saint John'sLocation

Historic Weather in Saint John's — Graph

°F

Saint John's temperature yesterday

Maximum temperature yesterday: 86 °F (at 10:00 AM)
Minimum temperature yesterday: 77 °F (at 3:00 AM)
Average temperature yesterday: 83 °F

Past Weeks' High & Low Weather Summary

 TemperatureHumidityPressure
High88 °F (Sep 3, 12:00 PM)94% (Sep 7, 9:00 PM)30.07 "Hg (Sep 7, 9:00 PM)
Low75 °F (Sep 4, 12:00 PM)59% (Sep 15, 11:00 AM)29.89 "Hg (Sep 11, 4:00 PM)
Average83 °F76%29.98 "Hg
* Reported Sep 3 2:00 AM — Sep 18 2:00 AM, Saint John's, Weather by CustomWeather, © 2014

Note: Actual official high and low records may vary slightly from our data, if they occured in-between our weather recording intervals... More about our weather records

Advertising

Saint John's weather history for previous 24 hours

 ConditionsComfort  
Time TempWeatherWind HumidityBarometerVisibility
2:00 AM
Sep 18
82 °FPassing clouds.7 mph84%29.92 "HgN/A
1:00 AM82 °FPassing clouds.7 mph84%29.95 "HgN/A
12:00 AM82 °FPassing clouds.7 mph79%29.95 "HgN/A
11:00 PM
Sep 17
82 °FPassing clouds.7 mph84%29.95 "HgN/A
10:00 PM82 °FPassing clouds.6 mph84%29.95 "HgN/A
9:00 PM82 °FPassing clouds.8 mph79%29.95 "HgN/A
8:00 PM82 °FPassing clouds.10 mph79%29.92 "HgN/A
7:00 PM82 °FPassing clouds.12 mph79%29.92 "HgN/A
6:00 PM84 °FScattered clouds.12 mph74%29.92 "HgN/A
5:00 PM86 °FPassing clouds.8 mph70%29.89 "HgN/A
4:00 PM86 °FPassing clouds.10 mph70%29.89 "HgN/A
3:00 PM86 °FScattered clouds.12 mph66%29.89 "HgN/A
2:00 PM86 °FScattered clouds.13 mph70%29.92 "HgN/A
1:00 PM86 °FScattered clouds.13 mph70%29.95 "HgN/A
12:00 PM86 °FScattered clouds.13 mph66%29.95 "HgN/A
11:00 AM86 °FScattered clouds.13 mph70%29.98 "HgN/A
10:00 AM86 °FScattered clouds.13 mph70%29.98 "HgN/A
9:00 AM84 °FPassing clouds.10 mph74%29.98 "HgN/A
8:00 AM84 °FPassing clouds.9 mph70%29.95 "HgN/A
7:00 AM81 °FPassing clouds.8 mph84%29.95 "HgN/A
6:00 AM79 °FScattered clouds.7 mph89%29.95 "HgN/A
5:00 AM79 °FPassing clouds.8 mph89%29.95 "HgN/A
4:00 AM79 °FPassing clouds.5 mph84%29.92 "HgN/A
Weather by CustomWeather, © 2014

See weather overviewHow to use our weather pages